COSMOS 1275 DEB, 42149

Orbit data source: Space-Track

COSMOS 1275 DEB, 42149 is space debris in LEO originally from a launch on Thu, 04 Jun 1981 UTC launched from the Plesetsk Missile And Space Complex (PKMTR). Debris objects in space refer to the collection of defunct objects orbiting the Earth. Examples of debris include non-operational satellites, rocket bodies, and fragments generated from explosions, collisions, or faulty payload assembly.

Loading next visibility...
Identifier
42149, 1981-053RM
Orbit
LEO
Country
Flag of CISCIS
Related business
Manufacturer
Unknown
Mission
Spacecraft
Bus & Motor
Unknown
Mass
Unknown
Launch date (UTC)
1981-06-04 (45 years ago)
Launch vehicle
Unknown
Launch site
Plesetsk Missile And Space Complex (PKMTR)
Object type
Payload
Rocket body
Debris
Shape & HBR
Unknown shape, 0.1 m
Radar Cross Section
Small (<0.1 m²)

Expand to show TLE details & history
Last TLE update: 1 week ago

TLE from 1 week ago
0 COSMOS 1275 DEB
1 42149U 81053RM  25333.71574954  .00001660  00000-0  13059-2 0  9998
2 42149  82.8120 136.4135 0082771  33.2873 327.3457 13.89655212 72852
Epoch: 2025-11-29T17:10Z
TLE epoch observation values (Epoch: 2025-11-29T17:10:40.760Z)
Latitude
-0.00004°
Longitude
169.90369°
Altitude
881.965 km
Speed
7.437 km/s
True Right ascension
09h 05m 39s
True Declination
0° 00' 00"
Sunlit
Object was in daylight at epoch
Visualization orbit readout
Latitude
Unknown
Longitude
Unknown
Altitude
Unknown
Speed
Unknown
Apparent Right ascension
Unknown
Apparent Declination
Unknown
Sunlit
N/A
Visualization observer readout
Local Sidereal Time
02:45:42
Azimuth
Unknown
Elevation
Unknown
Doppler factor
Unknown
Orbital elements
Apogee altitude
987.438 km
Perigee altitude
866.508 km
Semi-major axis
7,305.11 km
Eccentricity
0.00828
Inclination
82.812°
RAAN
136.4135°
Arg. of periapsis
33.2873°
True anomaly
326.82944°
Mean anomaly
327.3457°
Eccentric anomaly
327.08802°
Mean motion
3.47619 °/min
Orbital period
103.56 mins
BSTAR
0.0013059
Loading maneuver chart data...
Computing Atmospheric mass density...

Documentation

Showing up to 5 results
|